Preview of NWS' New Version of Forecast
This preview is not operational and should not be used for support decisions.

Regional Weather Roundup (RWR)

Issued by National Weather Service (NWS)

                            
000
ASUS45 KBOI 230210
RWRID 

IDAHO REGIONAL WEATHER ROUNDUP
NATIONAL WEATHER SERVICE BOISE ID
800 PM MDT SUN SEP 22 2019

NOTE: "FAIR" INDICATES FEW OR NO CLOUDS BELOW 12000 FEET
WITH NO SIGNIFICANT WEATHER AND/OR OBSTRUCTIONS TO VISIBILITY

IDZ012-014-230300-
SOUTHWEST IDAHO

  
CITY           SKY/WX    TMP DP  RH WIND       PRES   REMARKS
BOISE          MOCLDY    72  37  28 SE7       29.86S                  
CALDWELL       MOCLDY    71  45  39 SE5       29.84S                  
MOUNTAIN HOME  MOCLDY    67  39  36 E6        29.86F                  
$$

IDZ016-017-230300-
SOUTHCENTRAL IDAHO

  
CITY           SKY/WX    TMP DP  RH WIND       PRES   REMARKS
BURLEY         CLEAR     63  37  38 VRB3      29.95R                  
JEROME         PTCLDY    64  37  36 E12       29.93F                  
TWIN FALLS     CLEAR     55  41  59 CALM      29.94S                  
$$

IDZ019>023-230300-
SOUTHEAST IDAHO

  
CITY           SKY/WX    TMP DP  RH WIND       PRES   REMARKS
IDAHO FALLS    CLEAR     60  40  47 S6        30.05S                  
POCATELLO      CLEAR     60  33  36 SE8       30.03S                  
REXBURG        CLEAR     59  42  53 E5        30.06S                  
$$

IDZ006-010-011-018-031-032-230300-
CENTRAL IDAHO MOUNTAINS

  
CITY           SKY/WX    TMP DP  RH WIND       PRES   REMARKS
MCCALL         MOCLDY    59  40  49 E3        29.95F                  
HAILEY         PTCLDY    52  43  71 CALM      30.04F                  
STANLEY          N/A     58  34  40 S9        30.05R                  
SALMON         CLOUDY    64  47  53 CALM      29.89S                  
CHALLIS        MOCLDY    64  35  34 S15G26    29.94R                  
$$

IDZ002-004-006-007-026-230300-
NORTHERN IDAHO

  
CITY           SKY/WX    TMP DP  RH WIND       PRES   REMARKS
LEWISTON       LGT RAIN  65  50  58 W16G29    29.88R                  
LOWELL           N/A     61  56  83 CALM      29.82R                  
COEUR D'ALENE  LGT RAIN  64  48  56 SW8       29.87R                  
MULLAN PASS    CLOUDY    50  42  74 NW5       29.97F                  
$$